User: anonymous   Login
Location: Alfortville
(48.8058°N, 2.4204°E)
Time: 18:07:49
(UTC+00:00)
Language:

NOSS 8 (H) - Orbit

View from above orbital plane
View from above orbital plane
View from above satellite
View from above satellite

Ground track
Ground track

The orbit data is extracted from the following two-line orbital elements,

1 18025U 87043H   22023.74963181  .00002532  00000-0  18897-3 0  9994
2 18025  63.2972  38.1028 0953006  71.4411 298.7651 13.47691825132381
Epoch (UTC): 23 January 2022 17:59:28
Eccentricity: 0.0953006
inclination: 63.2972°
perigee height: 370 km
apogee height: 1791 km
right ascension of ascending node: 38.1028°
argument of perigee: 71.4411°
revolutions per day: 13.47691825
mean anomaly at epoch: 298.7651°
orbit number at epoch: 13238

The dashed part of the orbit path shows where the satellite is in the earth's shadow,  

DLR